Zurück zum Katalog

FREGAT R/B

AktivPO
NORAD 59073·ROCKET BODY·🇷🇺 Russia

Gestartet Feb 29, 2024 von Vostochny Cosmodrome

Loading…

Nächste Überflüge (nächste 24 Stunden)

TLE

AktuellSource: Space-Track

Epoche: Sep 14, 2026, 00:24 UTC

1 59073U 24039W   26257.01678970  .00000133  00000-0  30734-4 0  9990
2 59073  88.9814 273.2697 0034528  11.6167 348.5828 14.48647988134267

Verfolge FREGAT R/B in Echtzeit mit AllMySat

Download on the App Store